OpenBCM V1.13 (Linux)

Packet Radio Mailbox

DB0FHN

[JN59NK Nuernberg]

 Login: GUEST





  
LU1HVK > KEP      01.10.19 08:34l 252 Lines 12372 Bytes #999 (0) @ WW
BID : 32670_LU1HVK
Read: DJ6UX DF7EAV GUEST
Subj: TLE 01 10
Path: DB0FHN<DB0BLO<DB0ERF<IZ3LSV<IR1UAW<I0OJJ<VE2PKT<N3HYM<IV3BVK<IK5FKA<
      LU9HGS<LU1HVK
Sent: 191001/0523Z 32670@LU1HVK.2594.CBA.ARG.SA LinBPQ6.0.19

>From lu1hvk%lu1hvk.2594.cba.arg.sa@i0ojj.ampr.org Tue Oct  1 07:26:39 2019
Received: from i0ojj.ampr.org by i0ojj.ampr.org (JNOS2.0k.3b2) with SMTP
	id AA27902 ; Tue, 01 Oct 2019 07:26:39 +0200
Message-Id: <32670_LU1HVK@ve2pkt.bbs>
>From: lu1hvk@lu1hvk.2594.cba.arg.sa
X-JNOS-User-Port: Telnet   (ve2pkt @ 144.172.216.109)  -> Sending message

                         _    _   _ _ _   ___     ___  __
                        | |  | | | / | | | \ \   / / |/ /
                        | |  | | | | | |_| |\ \ / /| ' /
                        | |__| |_| | |  _  | \ V / | . \
                        |_____\___/|_|_| |_|  \_/  |_|\_\

     BBS/NODO - CORDOBA (LEONES-FF87UH) - LU1HVK-4 NODO - LU1HVK-3 APRS

+----------------------------------------------------------------------------+
OSCAR 7
1  7530U 74089B   19273.91761184 -.00000048 +00000-0 -18970-4 0  9995
2  7530 101.7572 240.5557 0012230 144.3328 235.8378 12.53640059053347
OSCAR 11 (UoSAT 2)
1 14781U 84021B   19273.93802291 +.00000050 +00000-0 +12243-4 0  9993
2 14781 097.6062 293.6973 0008019 347.6314 012.4703 14.83109012893217
OSCAR 19 (LUSAT)
1 20442U 90005G   19273.78111583 -.00000009 +00000-0 +13180-4 0  9999
2 20442 098.6560 215.6420 0011295 197.6980 162.3812 14.32933559551228
EYESAT A
1 22825U 93061C   19273.88997105 -.00000012 +00000-0 +13220-4 0  9993
2 22825 098.9118 264.9450 0009348 059.3122 300.8979 14.30067400356570
ITAMSAT
1 22826U 93061D   19273.93730289 -.00000014 +00000-0 +12470-4 0  9996
2 22826 098.9059 264.9717 0009757 048.7273 311.4748 14.30401442356800
RADIO ROSTO
1 23439U 94085A   19273.81604095 -.00000045 +00000-0 -75398-4 0  9999
2 23439 064.8160 307.7439 0145320 092.9712 268.7852 11.27568104019638
JAS 2
1 24278U 96046B   19273.81102353 -.00000044 +00000-0 -68037-5 0  9992
2 24278 098.5535 053.1638 0349793 330.2413 027.9229 13.53093564141632
TECHSAT 1B
1 25397U 98043D   19273.84596065 -.00000010 +00000-0 +15076-4 0  9990
2 25397 098.6952 212.7580 0002394 091.1100 269.0352 14.23671254102478
ISS (ZARYA)
1 25544U 98067A   19274.06638826  .00001725  00000-0  38078-4 0  9997
2 25544  51.6430 196.1991 0007493 101.8440 353.3966 15.50124855191684
PCSAT
1 26931U 01043C   19273.88239190 -.00000046 +00000-0 +14109-4 0  9991
2 26931 067.0499 094.8159 0007433 269.9237 090.1012 14.30553688939804
SAUDISAT 1C
1 27607U 02058C   19273.91913230 -.00000015 +00000-0 +18711-4 0  9996
2 27607 064.5539 090.9314 0076057 236.2764 123.1074 14.75574586902288
CUTE-1
1 27844U 03031E   19273.70642017 +.00000035 +00000-0 +35229-4 0  9994
2 27844 098.6855 280.3693 0010993 090.2529 269.9908 14.22196693843032
CUBESAT XI 4
1 27848U 03031J   19273.93934860 +.00000025 +00000-0 +31050-4 0  9990
2 27848 098.6930 281.1204 0010866 100.1908 260.0495 14.21789608842921
MOZHAYETS 4
1 27939U 03042A   19273.80576474  .00000064  00000-0  20032-4 0  9993
2 27939  98.0559  47.6805 0014226  98.5089 261.7740 14.66805846855803
CUBESAT XI 5
1 28895U 05043F   19273.62350534 +.00000124 +00000-0 +32564-4 0  9995
2 28895 097.9744 052.8813 0017323 028.0071 332.2060 14.63694487742455
CUTE-1.7+APD II
1 32785U 08021C   19273.82638393 +.00000193 +00000-0 +26467-4 0  9992
2 32785 097.5553 268.6577 0011527 279.0808 080.9105 14.88349849619100
DELFI C3
1 32789U 08021G   19273.72877980 +.00001208 +00000-0 +84238-4 0  9990
2 32789 097.4548 320.2087 0013622 125.8709 234.3786 15.07138767622532
SEEDS
1 32791U 08021J   19273.66915301 +.00000282 +00000-0 +33983-4 0  9998
2 32791 097.5314 274.5772 0011816 249.4999 110.4952 14.90876436619523
YUBELEINY
1 32953U 08025A   19273.87114696  .00000020  00000-0  75656-4 0  9996
2 32953  82.4978  79.9691 0018630 262.2424  97.6544 12.43091257515250
PRISM (HITOMI)
1 33493U 09002B   19273.75548644 +.00000841 +00000-0 +78984-4 0  9991
2 33493 098.1215 198.6559 0014380 192.8236 167.2620 14.96747325580702
KKS-1 (KISEKI)
1 33499U 09002H   19273.90857581 +.00000096 +00000-0 +22165-4 0  9999
2 33499 098.3430 115.9104 0008099 230.2580 129.7915 14.75465264574165
SWISSCUBE
1 35932U 09051B   19273.68862796 +.00000098 +00000-0 +33240-4 0  9994
2 35932 098.5980 082.7704 0007212 198.7026 161.3907 14.56312938531879
BEESAT
1 35933U 09051C   19273.89146692 +.00000078 +00000-0 +28556-4 0  9990
2 35933 098.6000 084.7818 0005188 209.7950 150.2952 14.56398572531977
ITUPSAT 1
1 35935U 09051E   19273.45940332  .00000067  00000-0  26640-4 0  9997
2 35935  98.6108  84.5662 0007490 211.4763 148.5986 14.55554509531737
XIWANG-1 (HOPE-1)
1 36122U 09072B   19273.71010560 -.00000024 +00000-0 +48073-4 0  9997
2 36122 100.0777 271.2161 0007881 102.0674 258.1319 13.16351579470564
TISAT 1
1 36799U 10035E   19273.69375037 +.00000263 +00000-0 +32620-4 0  9993
2 36799 098.1694 069.3830 0013621 103.9057 256.3676 14.91164185500066
JUGNU
1 37839U 11058B   19273.49500848 +.00000324 +00000-0 +30891-4 0  9999
2 37839 019.9619 065.2955 0019042 031.3879 011.1892 14.12659709411840
SRMSAT
1 37841U 11058D   19273.25243056 +.00000326 +00000-0 +34107-4 0  9997
2 37841 019.9717 125.6849 0011814 254.0644 065.3808 14.10640145411231
M-CUBED/EXP-1 PRIME
1 37855U 11061F   19273.80728015 +.00001310 +00000-0 +72847-4 0  9997
2 37855 101.7138 222.8509 0173069 128.0723 233.6245 15.05603307431977
HORYU 2
1 38340U 12025D   19273.92509043 +.00000172 +00000-0 +33045-4 0  9991
2 38340 098.3198 315.5929 0012264 147.1482 213.0491 14.75753287386123
STRAND 1
1 39090U 13009E   19273.81138566 +.00000024 +00000-0 +23768-4 0  9990
2 39090 098.4788 117.9799 0008926 347.0744 013.0211 14.35098696345308
SOMP
1 39134U 13015E   19273.82426873 +.00001443 +00000-0 +74442-4 0  9999
2 39134 064.8640 043.0202 0036083 286.5870 073.1296 15.20351039356042
BEESAT 3
1 39135U 13015F   19273.80020488 +.00000974 +00000-0 +57493-4 0  9995
2 39135 064.8683 062.8739 0034856 295.5800 064.1725 15.17620053355657
BEESAT 2
1 39136U 13015G   19273.87687366 +.00000894 +00000-0 +54675-4 0  9997
2 39136 064.8689 066.7474 0026657 301.1305 058.7207 15.17039703355589
CUBEBUG 1
1 39153U 13018D   19273.83960708  .00000206  00000-0  33725-4 0  9999
2 39153  97.9808  11.3937 0016133 217.2206 142.7889 14.80599961347221
ZACUBE
1 39417U 13066B   19273.81108407 +.00000208 +00000-0 +32410-4 0  9995
2 39417 097.5627 281.4620 0060159 053.5594 307.1145 14.81153159316455
TRITON 1
1 39427U 13066M   19273.88814527 +.00000152 +00000-0 +32254-4 0  9994
2 39427 097.6887 244.8941 0113389 191.1724 168.6963 14.67883284313438
GOMX 1
1 39430U 13066Q   19273.77814421  .00000147  00000-0  36059-4 0  9990
2 39430  97.7568 223.5273 0149975 286.3879  72.0883 14.59289760311784
HUMSAT D
1 39433U 13066T   19273.81846951  .00000424  00000-0  46612-4 0  9995
2 39433  97.5437 317.0153 0029589 315.2505  44.6328 14.92258408318601
CUBEBUG 2
1 39440U 13066AA  19273.88901690 +.00000184 +00000-0 +32354-4 0  9993
2 39440 097.6088 266.2071 0081665 106.1574 254.8644 14.75890319314147
FUNCUBE 1
1 39444U 13066AE  19273.75392555 +.00000265 +00000-0 +38811-4 0  9991
2 39444 097.5601 283.4522 0059184 047.2970 313.3206 14.81979890314750
UWE-3
1 39446U 13066AG  19273.71468512 +.00000196 +00000-0 +32410-4 0  9998
2 39446 097.5850 273.1700 0071551 080.8145 280.1152 14.78425513314048
SPROUT
1 39770U 14029E   19273.83806925 +.00000465 +00000-0 +57485-4 0  9993
2 39770 097.8879 016.4821 0009861 101.3379 258.8943 14.87435696290313
UNISAT 6
1 40012U 14033C   19273.60648140 +.00000170 +00000-0 +32463-4 0  9999
2 40012 097.7424 135.6667 0059455 121.7495 238.9527 14.74011066283990
DUCHIFAT 1
1 40021U 14033M   19273.79043367 +.00000402 +00000-0 +46738-4 0  9997
2 40021 097.9237 198.7287 0014366 068.6682 291.6067 14.90690783287054
QB50P1
1 40025U 14033R   19273.79624510  .00000323  00000-0  40341-4 0  9992
2 40025  97.9032 193.3007 0013869  77.9758 282.3012 14.88988360286814
CHUBUSAT 1
1 40300U 14070C   19273.80047601  .00000622  00000-0  29934-4 0  9998
2 40300  97.3182 345.3121 0021184  51.0186  85.5136 15.22183230271853
NUDT-PHONESAT
1 40900U 15049B   19273.91734914 +.00001894 +00000-0 +83231-4 0  9995
2 40900 097.4379 282.2470 0012487 171.8305 275.9518 15.23077349223528
ZDPS 2A
1 40901U 15049C   19273.90829547 +.00000594 +00000-0 +32665-4 0  9993
2 40901 097.4617 278.2400 0012771 194.2087 255.8644 15.17846468223047
ZDPS 2B
1 40902U 15049D   19273.81930646  .00001099  00000-0  57790-4 0  9994
2 40902  97.4566 275.5641 0012810 191.6892 292.1161 15.17704807223001
XW-2A
1 40903U 15049E   19273.86820381  .00002100  00000-0  50918-4 0  9993
2 40903  97.3282 317.1787 0014901 123.7231 323.1432 15.42130023226309
KAITUO 1A
1 40904U 15049F   19273.80462127  .00000732  00000-0  42177-4 0  9995
2 40904  97.4700 274.0512 0013655 202.1324 283.0089 15.15445930222767
OBJECT G
1 40905U 15049G   19273.82624041  .00000143  00000-0  11362-4 0  9991
2 40905  97.4751 271.5158 0014762 197.6767 283.9612 15.14348447222632
XW-2C
1 40906U 15049H   19273.78383278  .00000389  00000-0  23854-4 0  9992
2 40906  97.4710 274.1598 0013969 192.6521 292.1410 15.15761768222764
XW-2D
1 40907U 15049J   19273.87880970  .00000790  00000-0  44588-4 0  9997
2 40907  97.4694 273.9337 0013543 189.3952 286.8869 15.15959475222798
LILACSAT 2
1 40908U 15049K   19273.95944324 +.00000013 +00000-0 +43461-5 0  9999
2 40908 097.4823 272.7262 0014983 197.5608 221.5789 15.13852678222584
XW-2F
1 40910U 15049M   19273.86733005  .00001097  00000-0  58085-4 0  9994
2 40910  97.4648 276.0771 0014459 181.3147 263.6337 15.17437847222814
XW-2B
1 40911U 15049N   19273.90655248  .00000453  00000-0  27109-4 0  9990
2 40911  97.4710 274.6281 0013396 189.7449 233.2991 15.15885837222690
